Time,TemperatureF,DewpointF,PressureIn,WindDirection,WindDirectionDegrees,WindSpeedMPH,WindSpeedGustMPH,Humidity,HourlyPrecipIn,Conditions,Clouds,dailyrainin,SoftwareType,DateUTC
2013-04-07 00:00:00,69.0,61.9,30.12,East,82,0.0,4.0,78,0.00,,---,0.00,VWS V14.01,2013-04-07 04:00:00,
2013-04-07 00:01:00,69.1,62.0,30.12,NE,41,2.0,4.0,78,0.00,,---,0.00,VWS V14.01,2013-04-07 04:01:00,
2013-04-07 00:02:00,69.2,61.7,30.12,NE,36,6.0,6.0,77,0.00,,---,0.00,VWS V14.01,2013-04-07 04:02:00,
2013-04-07 00:07:00,69.6,61.7,30.11,ENE,73,2.0,8.0,76,0.00,,---,0.00,VWS V14.01,2013-04-07 04:07:00,
2013-04-07 00:12:00,69.9,61.6,30.11,NE,49,5.0,8.0,75,0.00,,---,0.00,VWS V14.01,2013-04-07 04:12:00,
2013-04-07 00:17:00,70.1,61.4,30.11,East,84,2.0,9.0,74,0.00,,---,0.00,VWS V14.01,2013-04-07 04:17:00,
2013-04-07 00:22:00,70.1,61.4,30.11,NNE,33,4.0,9.0,74,0.00,,---,0.00,VWS V14.01,2013-04-07 04:22:00,
2013-04-07 00:27:00,70.2,61.5,30.11,ESE,112,0.0,9.0,74,0.00,,---,0.00,VWS V14.01,2013-04-07 04:27:00,
2013-04-07 00:32:00,70.1,61.4,30.11,East,82,2.0,2.0,74,0.00,,---,0.00,VWS V14.01,2013-04-07 04:32:00,
2013-04-07 00:37:00,69.9,61.2,30.11,NE,51,3.0,7.0,74,0.00,,---,0.00,VWS V14.01,2013-04-07 04:37:00,
2013-04-07 00:42:00,69.8,61.2,30.11,East,92,2.0,8.0,74,0.00,,---,0.00,VWS V14.01,2013-04-07 04:42:00,
2013-04-07 00:47:00,69.6,61.0,30.11,ESE,105,2.0,8.0,74,0.00,,---,0.00,VWS V14.01,2013-04-07 04:47:00,
2013-04-07 00:52:00,69.5,60.5,30.11,ENE,65,5.0,8.0,73,0.00,,---,0.00,VWS V14.01,2013-04-07 04:52:00,
2013-04-07 00:57:00,69.4,60.8,30.11,ENE,63,2.0,8.0,74,0.00,,---,0.00,VWS V14.01,2013-04-07 04:57:00,
2013-04-07 01:02:00,69.2,60.6,30.11,NE,40,2.0,4.0,74,0.00,,---,0.00,VWS V14.01,2013-04-07 05:02:00,
2013-04-07 01:08:00,69.2,60.6,30.10,ENE,66,0.0,5.0,74,0.00,,---,0.00,VWS V14.01,2013-04-07 05:08:00,
2013-04-07 01:13:00,68.9,60.3,30.10,ENE,72,3.0,5.0,74,0.00,,---,0.00,VWS V14.01,2013-04-07 05:13:00,
2013-04-07 01:18:00,68.8,60.2,30.10,ENE,75,1.0,5.0,74,0.00,,---,0.00,VWS V14.01,2013-04-07 05:18:00,
2013-04-07 01:23:00,68.7,60.5,30.10,ENE,66,2.0,5.0,75,0.00,,---,0.00,VWS V14.01,2013-04-07 05:23:00,
2013-04-07 01:28:00,68.6,60.4,30.10,ENE,70,2.0,6.0,75,0.00,,---,0.00,VWS V14.01,2013-04-07 05:28:00,
2013-04-07 01:33:00,68.5,60.3,30.09,ENE,63,2.0,4.0,75,0.00,,---,0.00,VWS V14.01,2013-04-07 05:33:00,
2013-04-07 01:38:00,68.4,59.8,30.09,ENE,68,2.0,4.0,74,0.00,,---,0.00,VWS V14.01,2013-04-07 05:38:00,
2013-04-07 01:43:00,68.4,59.8,30.09,ENE,57,1.0,4.0,74,0.00,,---,0.00,VWS V14.01,2013-04-07 05:43:00,
2013-04-07 01:48:00,68.3,59.3,30.09,ENE,75,2.0,4.0,73,0.00,,---,0.00,VWS V14.01,2013-04-07 05:48:00,
2013-04-07 01:53:00,68.3,59.3,30.09,ESE,119,0.0,4.0,73,0.00,,---,0.00,VWS V14.01,2013-04-07 05:53:00,
2013-04-07 01:58:00,68.0,59.0,30.09,ESE,113,0.0,4.0,73,0.00,,---,0.00,VWS V14.01,2013-04-07 05:58:00,
2013-04-07 02:04:00,67.6,59.0,30.09,ESE,113,0.0,0.0,74,0.00,,---,0.00,VWS V14.01,2013-04-07 06:04:00,
2013-04-07 02:09:00,67.2,59.0,30.08,ESE,113,0.0,0.0,75,0.00,,---,0.00,VWS V14.01,2013-04-07 06:09:00,
2013-04-07 02:14:00,66.6,59.2,30.09,ESE,113,0.0,0.0,77,0.00,,---,0.00,VWS V14.01,2013-04-07 06:14:00,
2013-04-07 02:19:00,66.0,59.0,30.09,ESE,113,0.0,0.0,78,0.00,,---,0.00,VWS V14.01,2013-04-07 06:19:00,
2013-04-07 02:24:00,65.4,58.7,30.09,ESE,113,0.0,0.0,79,0.00,,---,0.00,VWS V14.01,2013-04-07 06:24:00,
2013-04-07 02:29:00,65.0,58.7,30.08,ESE,113,0.0,0.0,80,0.00,,---,0.00,VWS V14.01,2013-04-07 06:29:00,
2013-04-07 02:34:00,64.5,58.9,30.08,SSW,195,0.0,0.0,82,0.00,,---,0.00,VWS V14.01,2013-04-07 06:34:00,
2013-04-07 02:40:00,64.1,59.5,30.08,West,266,0.0,1.0,85,0.00,,---,0.00,VWS V14.01,2013-04-07 06:40:00,
2013-04-07 02:45:00,63.6,59.3,30.08,West,266,0.0,1.0,86,0.00,,---,0.00,VWS V14.01,2013-04-07 06:45:00,
2013-04-07 02:50:00,63.1,59.2,30.07,West,262,1.0,1.0,87,0.00,,---,0.00,VWS V14.01,2013-04-07 06:50:00,
2013-04-07 02:55:00,62.7,59.1,30.08,West,260,0.0,1.0,88,0.00,,---,0.00,VWS V14.01,2013-04-07 06:55:00,
2013-04-07 03:00:00,62.3,59.0,30.07,West,260,0.0,1.0,89,0.00,,---,0.00,VWS V14.01,2013-04-07 07:00:00,
2013-04-07 03:05:00,61.9,58.9,30.07,West,259,0.0,1.0,90,0.00,,---,0.00,VWS V14.01,2013-04-07 07:05:00,
2013-04-07 03:10:00,61.6,58.6,30.07,West,260,0.0,1.0,90,0.00,,---,0.00,VWS V14.01,2013-04-07 07:10:00,
2013-04-07 03:15:00,61.3,58.7,30.07,West,260,0.0,1.0,91,0.00,,---,0.00,VWS V14.01,2013-04-07 07:15:00,
2013-04-07 03:20:00,61.1,58.5,30.07,West,260,0.0,1.0,91,0.00,,---,0.00,VWS V14.01,2013-04-07 07:20:00,
2013-04-07 03:25:00,60.8,58.5,30.07,West,260,0.0,1.0,92,0.00,,---,0.00,VWS V14.01,2013-04-07 07:25:00,
2013-04-07 03:30:00,60.6,58.3,30.06,West,260,0.0,1.0,92,0.00,,---,0.00,VWS V14.01,2013-04-07 07:30:00,
2013-04-07 03:35:00,60.4,58.1,30.06,West,260,0.0,0.0,92,0.00,,---,0.00,VWS V14.01,2013-04-07 07:35:00,
2013-04-07 03:41:00,60.3,58.3,30.06,West,260,0.0,0.0,93,0.00,,---,0.00,VWS V14.01,2013-04-07 07:41:00,
2013-04-07 03:46:00,60.2,58.2,30.06,West,260,0.0,0.0,93,0.00,,---,0.00,VWS V14.01,2013-04-07 07:46:00,
2013-04-07 03:51:00,60.1,58.1,30.06,West,260,0.0,0.0,93,0.00,,---,0.00,VWS V14.01,2013-04-07 07:51:00,
2013-04-07 03:56:00,59.9,57.9,30.06,West,260,0.0,0.0,93,0.00,,---,0.00,VWS V14.01,2013-04-07 07:56:00,
2013-04-07 04:01:00,59.9,58.2,30.06,West,260,0.0,0.0,94,0.00,,---,0.00,VWS V14.01,2013-04-07 08:01:00,
2013-04-07 04:06:00,59.8,58.1,30.06,West,260,0.0,0.0,94,0.00,,---,0.00,VWS V14.01,2013-04-07 08:06:00,
2013-04-07 04:12:00,59.7,58.0,30.06,West,260,0.0,0.0,94,0.00,,---,0.00,VWS V14.01,2013-04-07 08:12:00,
2013-04-07 04:17:00,59.6,57.9,30.06,West,259,0.0,0.0,94,0.00,,---,0.00,VWS V14.01,2013-04-07 08:17:00,
2013-04-07 04:22:00,59.5,57.8,30.07,West,259,0.0,0.0,94,0.00,,---,0.00,VWS V14.01,2013-04-07 08:22:00,
2013-04-07 04:27:00,59.3,57.6,30.06,West,259,0.0,0.0,94,0.00,,---,0.00,VWS V14.01,2013-04-07 08:27:00,
2013-04-07 04:32:00,59.1,57.4,30.06,West,259,0.0,0.0,94,0.00,,---,0.00,VWS V14.01,2013-04-07 08:32:00,
2013-04-07 04:37:00,59.1,57.7,30.06,West,260,0.0,0.0,95,0.00,,---,0.00,VWS V14.01,2013-04-07 08:37:00,
2013-04-07 04:42:00,59.4,58.0,30.06,West,260,0.0,0.0,95,0.00,,---,0.00,VWS V14.01,2013-04-07 08:42:00,
2013-04-07 04:47:00,59.5,58.1,30.06,West,260,0.0,0.0,95,0.00,,---,0.00,VWS V14.01,2013-04-07 08:47:00,
2013-04-07 04:53:00,59.6,58.2,30.06,West,260,0.0,0.0,95,0.00,,---,0.00,VWS V14.01,2013-04-07 08:53:00,
2013-04-07 04:58:00,59.7,58.3,30.06,West,260,0.0,0.0,95,0.00,,---,0.00,VWS V14.01,2013-04-07 08:58:00,
2013-04-07 05:03:00,59.7,58.3,30.07,West,260,0.0,0.0,95,0.00,,---,0.00,VWS V14.01,2013-04-07 09:03:00,
2013-04-07 05:08:00,59.7,58.3,30.07,West,260,0.0,0.0,95,0.00,,---,0.00,VWS V14.01,2013-04-07 09:08:00,
2013-04-07 05:13:00,59.6,58.2,30.07,West,260,0.0,0.0,95,0.00,,---,0.00,VWS V14.01,2013-04-07 09:13:00,
2013-04-07 05:18:00,59.5,58.1,30.07,West,260,0.0,0.0,95,0.00,,---,0.00,VWS V14.01,2013-04-07 09:18:00,
2013-04-07 05:23:00,59.5,58.1,30.07,West,260,0.0,0.0,95,0.00,,---,0.00,VWS V14.01,2013-04-07 09:23:00,
2013-04-07 05:28:00,59.6,58.5,30.07,West,260,0.0,0.0,96,0.00,,---,0.00,VWS V14.01,2013-04-07 09:28:00,
2013-04-07 05:33:00,59.7,58.6,30.07,West,260,0.0,0.0,96,0.00,,---,0.00,VWS V14.01,2013-04-07 09:33:00,
2013-04-07 05:38:00,59.8,58.7,30.07,West,260,0.0,0.0,96,0.00,,---,0.00,VWS V14.01,2013-04-07 09:38:00,
2013-04-07 05:43:00,60.2,59.1,30.07,ENE,75,1.0,1.0,96,0.00,,---,0.00,VWS V14.01,2013-04-07 09:43:00,
2013-04-07 05:48:00,61.0,59.9,30.07,ENE,77,1.0,1.0,96,0.00,,---,0.00,VWS V14.01,2013-04-07 09:48:00,
2013-04-07 05:53:00,62.3,60.2,30.07,ENE,67,1.0,4.0,93,0.00,,---,0.00,VWS V14.01,2013-04-07 09:53:00,
2013-04-07 05:58:00,64.0,60.4,30.07,ESE,107,0.0,5.0,88,0.00,,---,0.00,VWS V14.01,2013-04-07 09:58:00,
2013-04-07 06:03:00,65.0,60.7,30.08,ENE,75,0.0,2.0,86,0.00,,---,0.00,VWS V14.01,2013-04-07 10:03:00,
2013-04-07 06:08:00,65.6,60.6,30.08,NE,53,0.0,3.0,84,0.00,,---,0.00,VWS V14.01,2013-04-07 10:08:00,
2013-04-07 06:13:00,65.7,60.4,30.08,NE,56,0.0,3.0,83,0.00,,---,0.00,VWS V14.01,2013-04-07 10:13:00,
2013-04-07 06:19:00,65.5,60.2,30.09,NE,55,0.0,3.0,83,0.00,,---,0.00,VWS V14.01,2013-04-07 10:19:00,
2013-04-07 06:24:00,65.1,59.8,30.09,NE,56,0.0,3.0,83,0.00,,---,0.00,VWS V14.01,2013-04-07 10:24:00,
2013-04-07 06:29:00,64.7,59.8,30.09,NE,55,0.0,3.0,84,0.00,,---,0.00,VWS V14.01,2013-04-07 10:29:00,
2013-04-07 06:34:00,64.3,59.7,30.10,NE,55,0.0,0.0,85,0.00,,---,0.00,VWS V14.01,2013-04-07 10:34:00,
2013-04-07 06:39:00,64.0,59.4,30.10,NE,56,0.0,0.0,85,0.00,,---,0.00,VWS V14.01,2013-04-07 10:39:00,
2013-04-07 06:44:00,64.0,59.7,30.10,ENE,65,0.0,2.0,86,0.00,,---,0.00,VWS V14.01,2013-04-07 10:44:00,
2013-04-07 06:49:00,64.4,59.8,30.10,ENE,65,0.0,2.0,85,0.00,,---,0.00,VWS V14.01,2013-04-07 10:49:00,
2013-04-07 06:55:00,64.6,59.7,30.10,ENE,70,0.0,2.0,84,0.00,,---,0.00,VWS V14.01,2013-04-07 10:55:00,
2013-04-07 07:00:00,64.9,60.0,30.10,NE,51,0.0,3.0,84,0.00,,---,0.00,VWS V14.01,2013-04-07 11:00:00,
2013-04-07 07:05:00,65.2,59.9,30.10,NE,56,0.0,1.0,83,0.00,,---,0.00,VWS V14.01,2013-04-07 11:05:00,
2013-04-07 07:10:00,65.2,59.6,30.11,NE,55,0.0,1.0,82,0.00,,---,0.00,VWS V14.01,2013-04-07 11:10:00,
2013-04-07 07:15:00,65.1,59.8,30.11,NE,55,1.0,1.0,83,0.00,,---,0.00,VWS V14.01,2013-04-07 11:15:00,
2013-04-07 07:20:00,65.3,59.7,30.11,ENE,74,0.0,2.0,82,0.00,,---,0.00,VWS V14.01,2013-04-07 11:20:00,
2013-04-07 07:25:00,65.5,59.9,30.11,East,95,0.0,2.0,82,0.00,,---,0.00,VWS V14.01,2013-04-07 11:25:00,
2013-04-07 07:30:00,65.6,60.0,30.11,ENE,70,1.0,2.0,82,0.00,,---,0.00,VWS V14.01,2013-04-07 11:30:00,
2013-04-07 07:35:00,66.0,60.0,30.11,ENE,63,0.0,2.0,81,0.00,,---,0.00,VWS V14.01,2013-04-07 11:35:00,
2013-04-07 07:40:00,66.3,60.0,30.12,East,80,0.0,3.0,80,0.00,,---,0.00,VWS V14.01,2013-04-07 11:40:00,
2013-04-07 07:45:00,66.2,59.9,30.12,East,80,0.0,3.0,80,0.00,,---,0.00,VWS V14.01,2013-04-07 11:45:00,
2013-04-07 07:51:00,66.3,60.0,30.12,NE,56,0.0,3.0,80,0.00,,---,0.00,VWS V14.01,2013-04-07 11:51:00,
2013-04-07 07:56:00,67.1,60.7,30.12,East,79,1.0,3.0,80,0.00,,---,0.00,VWS V14.01,2013-04-07 11:56:00,
2013-04-07 08:01:00,68.0,60.5,30.12,NE,41,2.0,3.0,77,0.00,,---,0.00,VWS V14.01,2013-04-07 12:01:00,
2013-04-07 08:06:00,68.8,60.9,30.12,East,82,2.0,5.0,76,0.00,,---,0.00,VWS V14.01,2013-04-07 12:06:00,
2013-04-07 08:12:00,69.6,61.0,30.13,East,94,1.0,5.0,74,0.00,,---,0.00,VWS V14.01,2013-04-07 12:12:00,
2013-04-07 08:17:00,70.1,61.0,30.13,East,79,2.0,5.0,73,0.00,,---,0.00,VWS V14.01,2013-04-07 12:17:00,
2013-04-07 08:22:00,70.4,61.0,30.13,East,84,1.0,5.0,72,0.00,,---,0.00,VWS V14.01,2013-04-07 12:22:00,
2013-04-07 08:27:00,70.8,60.9,30.13,East,93,2.0,5.0,71,0.00,,---,0.00,VWS V14.01,2013-04-07 12:27:00,
2013-04-07 08:32:00,71.1,61.2,30.13,ESE,114,2.0,3.0,71,0.00,,---,0.00,VWS V14.01,2013-04-07 12:32:00,
2013-04-07 08:37:00,71.3,60.6,30.13,ESE,106,0.0,8.0,69,0.00,,---,0.00,VWS V14.01,2013-04-07 12:37:00,
2013-04-07 08:42:00,71.4,60.7,30.13,ENE,59,3.0,8.0,69,0.00,,---,0.00,VWS V14.01,2013-04-07 12:42:00,
2013-04-07 08:47:00,71.3,60.2,30.13,ENE,58,3.0,8.0,68,0.00,,---,0.00,VWS V14.01,2013-04-07 12:47:00,
2013-04-07 08:53:00,71.4,59.9,30.13,NE,56,4.0,9.0,67,0.00,,---,0.00,VWS V14.01,2013-04-07 12:53:00,
2013-04-07 08:58:00,71.6,60.5,30.14,East,100,5.0,9.0,68,0.00,,---,0.00,VWS V14.01,2013-04-07 12:58:00,
2013-04-07 09:03:00,71.7,60.2,30.14,NE,55,7.0,7.0,67,0.00,,---,0.00,VWS V14.01,2013-04-07 13:03:00,
2013-04-07 09:08:00,72.0,60.5,30.14,ESE,121,0.0,9.0,67,0.00,,---,0.00,VWS V14.01,2013-04-07 13:08:00,
2013-04-07 09:13:00,72.3,60.3,30.14,East,94,1.0,10.0,66,0.00,,---,0.00,VWS V14.01,2013-04-07 13:13:00,
2013-04-07 09:18:00,72.6,60.2,30.14,NE,51,5.0,10.0,65,0.00,,---,0.00,VWS V14.01,2013-04-07 13:18:00,
2013-04-07 09:23:00,72.8,60.4,30.14,NNE,29,3.0,10.0,65,0.00,,---,0.00,VWS V14.01,2013-04-07 13:23:00,
2013-04-07 09:28:00,73.3,60.4,30.15,ENE,77,4.0,10.0,64,0.00,,---,0.00,VWS V14.01,2013-04-07 13:28:00,
2013-04-07 09:33:00,73.4,60.5,30.15,NNE,29,4.0,8.0,64,0.00,,---,0.00,VWS V14.01,2013-04-07 13:33:00,
2013-04-07 09:39:00,73.5,60.6,30.15,NE,44,1.0,10.0,64,0.00,,---,0.00,VWS V14.01,2013-04-07 13:39:00,
2013-04-07 09:44:00,73.6,60.2,30.15,ENE,68,5.0,11.0,63,0.00,,---,0.00,VWS V14.01,2013-04-07 13:44:00,
2013-04-07 09:49:00,74.0,60.6,30.15,ENE,70,3.0,11.0,63,0.00,,---,0.00,VWS V14.01,2013-04-07 13:49:00,
2013-04-07 09:54:00,73.9,59.6,30.15,ESE,108,2.0,11.0,61,0.00,,---,0.00,VWS V14.01,2013-04-07 13:54:00,
2013-04-07 09:59:00,73.9,60.5,30.16,East,84,3.0,11.0,63,0.00,,---,0.00,VWS V14.01,2013-04-07 13:59:00,
2013-04-07 10:05:00,74.2,59.9,30.16,SE,129,3.0,9.0,61,0.00,,---,0.00,VWS V14.01,2013-04-07 14:05:00,
2013-04-07 10:10:00,74.0,59.2,30.17,NE,54,6.0,13.0,60,0.00,,---,0.00,VWS V14.01,2013-04-07 14:10:00,
2013-04-07 10:15:00,73.9,60.1,30.17,NE,51,4.0,13.0,62,0.00,,---,0.00,VWS V14.01,2013-04-07 14:15:00,
2013-04-07 10:20:00,73.9,61.0,30.17,North,5,2.0,13.0,64,0.00,,---,0.00,VWS V14.01,2013-04-07 14:20:00,
2013-04-07 10:25:00,73.8,60.4,30.17,NNE,29,3.0,13.0,63,0.00,,---,0.00,VWS V14.01,2013-04-07 14:25:00,
2013-04-07 10:30:00,73.7,60.3,30.17,SE,126,0.0,13.0,63,0.00,,---,0.00,VWS V14.01,2013-04-07 14:30:00,
2013-04-07 10:36:00,74.1,61.2,30.17,East,95,3.0,4.0,64,0.00,,---,0.00,VWS V14.01,2013-04-07 14:36:00,
2013-04-07 10:41:00,74.6,61.6,30.17,ESE,103,2.0,5.0,64,0.00,,---,0.00,VWS V14.01,2013-04-07 14:41:00,
2013-04-07 10:46:00,74.5,61.5,30.17,ENE,72,5.0,10.0,64,0.00,,---,0.00,VWS V14.01,2013-04-07 14:46:00,
2013-04-07 10:51:00,74.5,61.5,30.17,ENE,72,10.0,12.0,64,0.00,,---,0.00,VWS V14.01,2013-04-07 14:51:00,
2013-04-07 10:56:00,74.4,61.4,30.17,NNE,22,4.0,14.0,64,0.00,,---,0.00,VWS V14.01,2013-04-07 14:56:00,
2013-04-07 11:01:00,74.4,61.0,30.17,ESE,119,3.0,14.0,63,0.00,,---,0.00,VWS V14.01,2013-04-07 15:01:00,
2013-04-07 11:06:00,74.5,61.1,30.17,NE,40,6.0,14.0,63,0.00,,---,0.00,VWS V14.01,2013-04-07 15:06:00,
2013-04-07 11:11:00,74.4,61.4,30.16,NE,55,4.0,14.0,64,0.00,,---,0.00,VWS V14.01,2013-04-07 15:11:00,
2013-04-07 11:16:00,74.7,61.3,30.16,NNE,15,4.0,14.0,63,0.00,,---,0.00,VWS V14.01,2013-04-07 15:16:00,
2013-04-07 11:21:00,74.3,60.9,30.17,ENE,77,6.0,14.0,63,0.00,,---,0.00,VWS V14.01,2013-04-07 15:21:00,
2013-04-07 11:27:00,74.5,62.0,30.16,North,1,3.0,14.0,65,0.00,,---,0.00,VWS V14.01,2013-04-07 15:27:00,
2013-04-07 11:32:00,74.8,61.4,30.16,NNE,29,13.0,14.0,63,0.00,,---,0.00,VWS V14.01,2013-04-07 15:32:00,
2013-04-07 11:37:00,74.5,61.1,30.17,NE,46,4.0,14.0,63,0.00,,---,0.00,VWS V14.01,2013-04-07 15:37:00,
2013-04-07 11:42:00,74.6,62.1,30.16,ENE,58,3.0,14.0,65,0.00,,---,0.00,VWS V14.01,2013-04-07 15:42:00,
2013-04-07 11:47:00,74.8,61.4,30.16,NNE,26,7.0,14.0,63,0.00,,---,0.00,VWS V14.01,2013-04-07 15:47:00,
2013-04-07 11:52:00,74.7,61.3,30.16,NE,50,9.0,14.0,63,0.00,,---,0.00,VWS V14.01,2013-04-07 15:52:00,
2013-04-07 11:57:00,75.0,60.7,30.16,ESE,123,1.0,14.0,61,0.00,,---,0.00,VWS V14.01,2013-04-07 15:57:00,
2013-04-07 12:02:00,74.8,60.5,30.16,NE,49,5.0,5.0,61,0.00,,---,0.00,VWS V14.01,2013-04-07 16:02:00,
2013-04-07 12:07:00,74.4,60.5,30.16,NE,40,5.0,12.0,62,0.00,,---,0.00,VWS V14.01,2013-04-07 16:07:00,
2013-04-07 12:12:00,74.1,60.3,30.16,ENE,64,6.0,12.0,62,0.00,,---,0.00,VWS V14.01,2013-04-07 16:12:00,
2013-04-07 12:17:00,74.2,60.4,30.17,East,79,5.0,12.0,62,0.00,,---,0.00,VWS V14.01,2013-04-07 16:17:00,
2013-04-07 12:22:00,74.2,60.8,30.17,ESE,108,2.0,12.0,63,0.00,,---,0.00,VWS V14.01,2013-04-07 16:22:00,
2013-04-07 12:27:00,74.1,60.3,30.17,SE,133,1.0,12.0,62,0.00,,---,0.00,VWS V14.01,2013-04-07 16:27:00,
2013-04-07 12:33:00,74.0,60.2,30.17,SW,236,1.0,3.0,62,0.00,,---,0.00,VWS V14.01,2013-04-07 16:33:00,
2013-04-07 12:38:00,73.9,60.5,30.16,East,79,1.0,10.0,63,0.00,,---,0.00,VWS V14.01,2013-04-07 16:38:00,
2013-04-07 12:43:00,74.3,60.5,30.16,SE,140,0.0,10.0,62,0.00,,---,0.00,VWS V14.01,2013-04-07 16:43:00,
2013-04-07 12:48:00,74.6,60.3,30.17,SE,125,1.0,10.0,61,0.00,,---,0.00,VWS V14.01,2013-04-07 16:48:00,
2013-04-07 12:53:00,74.6,60.3,30.16,SE,125,0.0,10.0,61,0.00,,---,0.00,VWS V14.01,2013-04-07 16:53:00,
2013-04-07 12:58:00,74.5,60.2,30.16,East,84,1.0,10.0,61,0.00,,---,0.00,VWS V14.01,2013-04-07 16:58:00,
2013-04-07 13:03:00,74.6,60.3,30.16,ENE,63,5.0,7.0,61,0.00,,---,0.00,VWS V14.01,2013-04-07 17:03:00,
2013-04-07 13:08:00,75.2,60.4,30.16,South,185,0.0,7.0,60,0.00,,---,0.00,VWS V14.01,2013-04-07 17:08:00,
2013-04-07 13:13:00,75.5,60.2,30.15,East,84,1.0,7.0,59,0.00,,---,0.00,VWS V14.01,2013-04-07 17:13:00,
2013-04-07 13:18:00,76.1,60.8,30.15,SE,125,1.0,7.0,59,0.00,,---,0.00,VWS V14.01,2013-04-07 17:18:00,
2013-04-07 13:24:00,76.1,61.2,30.15,East,97,3.0,8.0,60,0.00,,---,0.00,VWS V14.01,2013-04-07 17:24:00,
2013-04-07 13:29:00,76.0,60.2,30.15,SE,138,1.0,8.0,58,0.00,,---,0.00,VWS V14.01,2013-04-07 17:29:00,
2013-04-07 13:34:00,76.1,61.2,30.15,ENE,77,3.0,7.0,60,0.00,,---,0.00,VWS V14.01,2013-04-07 17:34:00,
2013-04-07 13:39:00,75.5,59.7,30.15,NNE,22,4.0,12.0,58,0.00,,---,0.00,VWS V14.01,2013-04-07 17:39:00,
2013-04-07 13:44:00,75.5,60.7,30.15,ESE,110,1.0,12.0,60,0.00,,---,0.00,VWS V14.01,2013-04-07 17:44:00,
2013-04-07 13:49:00,76.0,60.7,30.15,NNE,26,6.0,12.0,59,0.00,,---,0.00,VWS V14.01,2013-04-07 17:49:00,
2013-04-07 13:54:00,76.3,61.4,30.14,ENE,61,5.0,12.0,60,0.00,,---,0.00,VWS V14.01,2013-04-07 17:54:00,
2013-04-07 14:00:00,76.3,60.9,30.14,NE,41,2.0,12.0,59,0.00,,---,0.00,VWS V14.01,2013-04-07 18:00:00,
2013-04-07 14:05:00,76.8,59.9,30.13,SE,127,4.0,5.0,56,0.00,,---,0.00,VWS V14.01,2013-04-07 18:05:00,
2013-04-07 14:10:00,77.0,60.1,30.13,WNW,283,2.0,9.0,56,0.00,,---,0.00,VWS V14.01,2013-04-07 18:10:00,
2013-04-07 14:15:00,76.9,60.5,30.13,SE,141,2.0,9.0,57,0.00,,---,0.00,VWS V14.01,2013-04-07 18:15:00,
2013-04-07 14:20:00,77.4,61.0,30.13,NE,54,2.0,11.0,57,0.00,,---,0.00,VWS V14.01,2013-04-07 18:20:00,
2013-04-07 14:25:00,77.7,60.3,30.13,ESE,106,2.0,11.0,55,0.00,,---,0.00,VWS V14.01,2013-04-07 18:25:00,
2013-04-07 14:30:00,77.1,60.2,30.13,ESE,102,2.0,11.0,56,0.00,,---,0.00,VWS V14.01,2013-04-07 18:30:00,
2013-04-07 14:35:00,76.8,59.9,30.13,ENE,70,4.0,10.0,56,0.00,,---,0.00,VWS V14.01,2013-04-07 18:35:00,
2013-04-07 14:40:00,76.7,60.8,30.13,SE,139,1.0,10.0,58,0.00,,---,0.00,VWS V14.01,2013-04-07 18:40:00,
2013-04-07 14:45:00,77.6,60.2,30.13,ENE,75,5.0,10.0,55,0.00,,---,0.00,VWS V14.01,2013-04-07 18:45:00,
2013-04-07 14:50:00,77.1,59.2,30.13,NNE,22,6.0,11.0,54,0.00,,---,0.00,VWS V14.01,2013-04-07 18:50:00,
2013-04-07 14:55:00,76.9,59.5,30.12,ENE,69,8.0,11.0,55,0.00,,---,0.00,VWS V14.01,2013-04-07 18:55:00,
2013-04-07 15:00:00,76.7,59.3,30.12,NNE,30,3.0,14.0,55,0.00,,---,0.00,VWS V14.01,2013-04-07 19:00:00,
2013-04-07 15:05:00,76.7,58.8,30.12,NE,37,5.0,11.0,54,0.00,,---,0.00,VWS V14.01,2013-04-07 19:05:00,
2013-04-07 15:11:00,76.6,58.2,30.12,ENE,63,14.0,14.0,53,0.00,,---,0.00,VWS V14.01,2013-04-07 19:11:00,
2013-04-07 15:16:00,76.3,59.0,30.12,North,8,8.0,14.0,55,0.00,,---,0.00,VWS V14.01,2013-04-07 19:16:00,
2013-04-07 15:21:00,76.5,58.6,30.12,North,6,5.0,14.0,54,0.00,,---,0.00,VWS V14.01,2013-04-07 19:21:00,
2013-04-07 15:26:00,76.6,59.2,30.12,NNE,22,5.0,14.0,55,0.00,,---,0.00,VWS V14.01,2013-04-07 19:26:00,
2013-04-07 15:31:00,76.9,59.0,30.11,ESE,122,2.0,14.0,54,0.00,,---,0.00,VWS V14.01,2013-04-07 19:31:00,
2013-04-07 15:36:00,76.9,60.0,30.11,NE,50,8.0,12.0,56,0.00,,---,0.00,VWS V14.01,2013-04-07 19:36:00,
2013-04-07 15:41:00,77.0,60.1,30.11,SE,135,2.0,12.0,56,0.00,,---,0.00,VWS V14.01,2013-04-07 19:41:00,
2013-04-07 15:46:00,77.5,60.1,30.11,ENE,73,1.0,12.0,55,0.00,,---,0.00,VWS V14.01,2013-04-07 19:46:00,
2013-04-07 15:52:00,77.7,59.8,30.11,ENE,63,6.0,12.0,54,0.00,,---,0.00,VWS V14.01,2013-04-07 19:52:00,
2013-04-07 15:57:00,77.1,59.2,30.11,SE,135,0.0,12.0,54,0.00,,---,0.00,VWS V14.01,2013-04-07 19:57:00,
2013-04-07 16:02:00,77.3,58.8,30.11,NE,47,2.0,12.0,53,0.00,,---,0.00,VWS V14.01,2013-04-07 20:02:00,
2013-04-07 16:07:00,77.5,58.5,30.11,East,98,1.0,9.0,52,0.00,,---,0.00,VWS V14.01,2013-04-07 20:07:00,
2013-04-07 16:12:00,77.9,58.9,30.11,East,82,5.0,9.0,52,0.00,,---,0.00,VWS V14.01,2013-04-07 20:12:00,
2013-04-07 16:17:00,77.8,59.8,30.10,SE,129,4.0,9.0,54,0.00,,---,0.00,VWS V14.01,2013-04-07 20:17:00,
2013-04-07 16:22:00,77.8,59.3,30.10,ENE,69,4.0,9.0,53,0.00,,---,0.00,VWS V14.01,2013-04-07 20:22:00,
2013-04-07 16:27:00,77.7,59.2,30.10,SE,131,1.0,9.0,53,0.00,,---,0.00,VWS V14.01,2013-04-07 20:27:00,
2013-04-07 16:32:00,78.0,60.0,30.10,SSE,156,3.0,4.0,54,0.00,,---,0.00,VWS V14.01,2013-04-07 20:32:00,
2013-04-07 16:37:00,78.2,59.7,30.10,ESE,113,1.0,6.0,53,0.00,,---,0.00,VWS V14.01,2013-04-07 20:37:00,
2013-04-07 16:42:00,77.8,58.8,30.10,NE,40,2.0,8.0,52,0.00,,---,0.00,VWS V14.01,2013-04-07 20:42:00,
2013-04-07 16:47:00,77.4,60.0,30.10,NE,54,1.0,8.0,55,0.00,,---,0.00,VWS V14.01,2013-04-07 20:47:00,
2013-04-07 16:52:00,76.9,59.0,30.10,ENE,75,2.0,9.0,54,0.00,,---,0.00,VWS V14.01,2013-04-07 20:52:00,
2013-04-07 16:57:00,77.0,59.1,30.10,ESE,115,2.0,9.0,54,0.00,,---,0.00,VWS V14.01,2013-04-07 20:57:00,
2013-04-07 17:03:00,77.0,59.1,30.10,ESE,120,5.0,7.0,54,0.00,,---,0.00,VWS V14.01,2013-04-07 21:03:00,
2013-04-07 17:08:00,76.8,58.9,30.10,East,95,3.0,8.0,54,0.00,,---,0.00,VWS V14.01,2013-04-07 21:08:00,
2013-04-07 17:13:00,76.2,58.9,30.10,NE,37,6.0,10.0,55,0.00,,---,0.00,VWS V14.01,2013-04-07 21:13:00,
2013-04-07 17:18:00,76.3,59.5,30.10,East,82,10.0,10.0,56,0.00,,---,0.00,VWS V14.01,2013-04-07 21:18:00,
2013-04-07 17:24:00,76.2,59.4,30.10,ESE,116,3.0,10.0,56,0.00,,---,0.00,VWS V14.01,2013-04-07 21:24:00,
2013-04-07 17:29:00,76.4,60.5,30.10,ESE,122,4.0,10.0,58,0.00,,---,0.00,VWS V14.01,2013-04-07 21:29:00,
2013-04-07 17:34:00,76.1,60.3,30.09,ESE,120,3.0,8.0,58,0.00,,---,0.00,VWS V14.01,2013-04-07 21:34:00,
2013-04-07 17:39:00,75.8,60.5,30.10,SE,142,2.0,10.0,59,0.00,,---,0.00,VWS V14.01,2013-04-07 21:39:00,
2013-04-07 17:45:00,75.6,60.3,30.09,NE,46,7.0,10.0,59,0.00,,---,0.00,VWS V14.01,2013-04-07 21:45:00,
2013-04-07 17:50:00,75.1,60.3,30.10,NE,54,4.0,13.0,60,0.00,,---,0.00,VWS V14.01,2013-04-07 21:50:00,
2013-04-07 17:55:00,75.0,60.7,30.10,ENE,72,3.0,13.0,61,0.00,,---,0.00,VWS V14.01,2013-04-07 21:55:00,
2013-04-07 18:00:00,75.2,60.8,30.10,ENE,57,3.0,13.0,61,0.00,,---,0.00,VWS V14.01,2013-04-07 22:00:00,
2013-04-07 18:05:00,74.7,60.8,30.10,ENE,69,5.0,11.0,62,0.00,,---,0.00,VWS V14.01,2013-04-07 22:05:00,
2013-04-07 18:10:00,74.8,61.4,30.10,SE,133,1.0,11.0,63,0.00,,---,0.00,VWS V14.01,2013-04-07 22:10:00,
2013-04-07 18:15:00,75.1,60.8,30.10,SE,129,1.0,11.0,61,0.00,,---,0.00,VWS V14.01,2013-04-07 22:15:00,
2013-04-07 18:20:00,74.5,60.2,30.10,East,79,4.0,11.0,61,0.00,,---,0.00,VWS V14.01,2013-04-07 22:20:00,
2013-04-07 18:25:00,74.3,60.5,30.10,NNE,29,3.0,11.0,62,0.00,,---,0.00,VWS V14.01,2013-04-07 22:25:00,
2013-04-07 18:30:00,74.5,60.6,30.10,SSE,148,2.0,11.0,62,0.00,,---,0.00,VWS V14.01,2013-04-07 22:30:00,
2013-04-07 18:36:00,74.6,60.7,30.10,ENE,58,4.0,5.0,62,0.00,,---,0.00,VWS V14.01,2013-04-07 22:36:00,
2013-04-07 18:41:00,74.2,60.8,30.10,ESE,117,2.0,8.0,63,0.00,,---,0.00,VWS V14.01,2013-04-07 22:41:00,
2013-04-07 18:46:00,74.1,61.2,30.11,East,85,1.0,11.0,64,0.00,,---,0.00,VWS V14.01,2013-04-07 22:46:00,
2013-04-07 18:51:00,73.6,61.1,30.11,SE,146,1.0,11.0,65,0.00,,---,0.00,VWS V14.01,2013-04-07 22:51:00,
2013-04-07 18:56:00,73.3,61.3,30.10,ENE,71,5.0,11.0,66,0.00,,---,0.00,VWS V14.01,2013-04-07 22:56:00,
2013-04-07 19:01:00,73.0,61.0,30.10,East,101,2.0,11.0,66,0.00,,---,0.00,VWS V14.01,2013-04-07 23:01:00,
2013-04-07 19:06:00,72.7,60.7,30.10,ENE,64,3.0,6.0,66,0.00,,---,0.00,VWS V14.01,2013-04-07 23:06:00,
2013-04-07 19:12:00,72.4,60.8,30.10,NNE,33,3.0,10.0,67,0.00,,---,0.00,VWS V14.01,2013-04-07 23:12:00,
2013-04-07 19:17:00,72.2,60.7,30.10,ENE,72,3.0,10.0,67,0.00,,---,0.00,VWS V14.01,2013-04-07 23:17:00,
2013-04-07 19:22:00,72.1,60.5,30.10,ENE,63,2.0,10.0,67,0.00,,---,0.00,VWS V14.01,2013-04-07 23:22:00,
2013-04-07 19:27:00,71.9,60.4,30.10,ESE,111,2.0,10.0,67,0.00,,---,0.00,VWS V14.01,2013-04-07 23:27:00,
2013-04-07 19:32:00,71.7,60.6,30.10,NE,55,2.0,10.0,68,0.00,,---,0.00,VWS V14.01,2013-04-07 23:32:00,
2013-04-07 19:37:00,71.5,60.4,30.10,ENE,70,2.0,5.0,68,0.00,,---,0.00,VWS V14.01,2013-04-07 23:37:00,
2013-04-07 19:42:00,71.3,60.6,30.10,ENE,64,1.0,5.0,69,0.00,,---,0.00,VWS V14.01,2013-04-07 23:42:00,
2013-04-07 19:47:00,71.1,60.4,30.10,East,79,2.0,6.0,69,0.00,,---,0.00,VWS V14.01,2013-04-07 23:47:00,
2013-04-07 19:52:00,71.0,60.7,30.10,NE,50,4.0,6.0,70,0.00,,---,0.00,VWS V14.01,2013-04-07 23:52:00,
2013-04-07 19:57:00,70.8,60.5,30.10,ENE,61,2.0,6.0,70,0.00,,---,0.00,VWS V14.01,2013-04-07 23:57:00,
2013-04-07 20:02:00,70.5,60.3,30.10,ESE,108,0.0,1.0,70,0.00,,---,0.00,VWS V14.01,2013-04-08 00:02:00,
2013-04-07 20:07:00,70.3,60.5,30.10,ESE,109,0.0,1.0,71,0.00,,---,0.00,VWS V14.01,2013-04-08 00:07:00,
2013-04-07 20:12:00,70.1,60.7,30.10,East,80,1.0,2.0,72,0.00,,---,0.00,VWS V14.01,2013-04-08 00:12:00,
2013-04-07 20:18:00,69.9,60.5,30.10,East,79,0.0,2.0,72,0.00,,---,0.00,VWS V14.01,2013-04-08 00:18:00,
2013-04-07 20:23:00,69.6,60.6,30.10,ESE,105,0.0,2.0,73,0.00,,---,0.00,VWS V14.01,2013-04-08 00:23:00,
2013-04-07 20:28:00,69.3,60.7,30.10,ESE,105,0.0,2.0,74,0.00,,---,0.00,VWS V14.01,2013-04-08 00:28:00,
2013-04-07 20:33:00,69.2,60.6,30.11,ESE,105,0.0,1.0,74,0.00,,---,0.00,VWS V14.01,2013-04-08 00:33:00,
2013-04-07 20:38:00,68.9,60.7,30.11,ESE,105,0.0,1.0,75,0.00,,---,0.00,VWS V14.01,2013-04-08 00:38:00,
2013-04-07 20:43:00,68.6,60.4,30.11,ESE,105,0.0,1.0,75,0.00,,---,0.00,VWS V14.01,2013-04-08 00:43:00,
2013-04-07 20:48:00,68.4,60.2,30.11,ESE,105,0.0,1.0,75,0.00,,---,0.00,VWS V14.01,2013-04-08 00:48:00,
2013-04-07 20:53:00,68.0,60.2,30.11,ESE,104,0.0,1.0,76,0.00,,---,0.00,VWS V14.01,2013-04-08 00:53:00,
2013-04-07 20:58:00,67.7,60.2,30.11,ESE,105,0.0,1.0,77,0.00,,---,0.00,VWS V14.01,2013-04-08 00:58:00,
2013-04-07 21:04:00,67.2,59.8,30.11,ESE,105,0.0,0.0,77,0.00,,---,0.00,VWS V14.01,2013-04-08 01:04:00,
2013-04-07 21:09:00,66.9,59.8,30.11,ESE,105,0.0,0.0,78,0.00,,---,0.00,VWS V14.01,2013-04-08 01:09:00,
2013-04-07 21:14:00,66.9,60.5,30.11,ESE,105,0.0,0.0,80,0.00,,---,0.00,VWS V14.01,2013-04-08 01:14:00,
2013-04-07 21:19:00,66.7,60.7,30.11,ESE,105,0.0,0.0,81,0.00,,---,0.00,VWS V14.01,2013-04-08 01:19:00,
2013-04-07 21:25:00,66.4,60.4,30.11,ESE,105,0.0,0.0,81,0.00,,---,0.00,VWS V14.01,2013-04-08 01:25:00,
2013-04-07 21:30:00,66.3,60.7,30.11,ESE,105,0.0,0.0,82,0.00,,---,0.00,VWS V14.01,2013-04-08 01:30:00,
2013-04-07 21:35:00,66.1,60.8,30.11,ESE,105,0.0,0.0,83,0.00,,---,0.00,VWS V14.01,2013-04-08 01:35:00,
2013-04-07 21:40:00,65.9,60.9,30.12,ESE,104,0.0,0.0,84,0.00,,---,0.00,VWS V14.01,2013-04-08 01:40:00,
2013-04-07 21:45:00,65.7,60.7,30.12,ESE,105,0.0,0.0,84,0.00,,---,0.00,VWS V14.01,2013-04-08 01:45:00,
2013-04-07 21:50:00,65.6,61.0,30.12,ESE,105,0.0,0.0,85,0.00,,---,0.00,VWS V14.01,2013-04-08 01:50:00,
2013-04-07 21:55:00,65.4,60.8,30.12,ESE,105,0.0,0.0,85,0.00,,---,0.00,VWS V14.01,2013-04-08 01:55:00,
2013-04-07 22:00:00,65.1,60.5,30.12,ESE,105,0.0,0.0,85,0.00,,---,0.00,VWS V14.01,2013-04-08 02:00:00,
2013-04-07 22:05:00,64.9,60.6,30.12,ESE,105,0.0,0.0,86,0.00,,---,0.00,VWS V14.01,2013-04-08 02:05:00,
2013-04-07 22:10:00,64.7,60.8,30.12,ESE,104,0.0,0.0,87,0.00,,---,0.00,VWS V14.01,2013-04-08 02:10:00,
2013-04-07 22:15:00,64.5,60.5,30.12,ESE,104,0.0,0.0,87,0.00,,---,0.00,VWS V14.01,2013-04-08 02:15:00,
2013-04-07 22:20:00,64.3,60.3,30.12,ESE,104,0.0,0.0,87,0.00,,---,0.00,VWS V14.01,2013-04-08 02:20:00,
2013-04-07 22:25:00,64.4,60.8,30.12,ESE,105,0.0,0.0,88,0.00,,---,0.00,VWS V14.01,2013-04-08 02:25:00,
2013-04-07 22:31:00,64.4,60.8,30.12,ESE,104,0.0,0.0,88,0.00,,---,0.00,VWS V14.01,2013-04-08 02:31:00,
2013-04-07 22:36:00,64.3,61.0,30.12,ESE,105,0.0,0.0,89,0.00,,---,0.00,VWS V14.01,2013-04-08 02:36:00,
2013-04-07 22:41:00,64.4,61.1,30.12,ESE,105,0.0,0.0,89,0.00,,---,0.00,VWS V14.01,2013-04-08 02:41:00,
2013-04-07 22:46:00,64.2,60.9,30.12,ESE,105,0.0,0.0,89,0.00,,---,0.00,VWS V14.01,2013-04-08 02:46:00,
2013-04-07 22:51:00,63.9,60.6,30.12,ESE,105,0.0,0.0,89,0.00,,---,0.00,VWS V14.01,2013-04-08 02:51:00,
2013-04-07 22:57:00,63.9,60.9,30.12,ESE,104,0.0,0.0,90,0.00,,---,0.00,VWS V14.01,2013-04-08 02:57:00,
2013-04-07 23:02:00,63.8,61.1,30.12,ESE,105,0.0,0.0,91,0.00,,---,0.00,VWS V14.01,2013-04-08 03:02:00,
2013-04-07 23:07:00,63.7,61.0,30.13,ESE,105,0.0,0.0,91,0.00,,---,0.00,VWS V14.01,2013-04-08 03:07:00,
2013-04-07 23:12:00,63.8,61.1,30.13,ESE,105,0.0,1.0,91,0.00,,---,0.00,VWS V14.01,2013-04-08 03:12:00,
2013-04-07 23:17:00,63.9,61.2,30.13,ESE,105,0.0,1.0,91,0.00,,---,0.00,VWS V14.01,2013-04-08 03:17:00,
2013-04-07 23:22:00,63.7,60.7,30.13,East,100,0.0,1.0,90,0.00,,---,0.00,VWS V14.01,2013-04-08 03:22:00,
2013-04-07 23:27:00,63.5,60.5,30.13,East,101,0.0,1.0,90,0.00,,---,0.00,VWS V14.01,2013-04-08 03:27:00,
2013-04-07 23:32:00,63.3,60.6,30.13,East,101,0.0,0.0,91,0.00,,---,0.00,VWS V14.01,2013-04-08 03:32:00,
2013-04-07 23:37:00,63.1,60.4,30.13,East,101,0.0,0.0,91,0.00,,---,0.00,VWS V14.01,2013-04-08 03:37:00,
2013-04-07 23:43:00,62.9,60.5,30.13,East,100,0.0,0.0,92,0.00,,---,0.00,VWS V14.01,2013-04-08 03:43:00,
2013-04-07 23:48:00,62.6,60.2,30.13,East,101,0.0,0.0,92,0.00,,---,0.00,VWS V14.01,2013-04-08 03:48:00,
2013-04-07 23:53:00,62.3,59.6,30.12,East,101,0.0,0.0,91,0.00,,---,0.00,VWS V14.01,2013-04-08 03:53:00,
2013-04-07 23:58:00,62.0,59.7,30.12,East,100,0.0,0.0,92,0.00,,---,0.00,VWS V14.01,2013-04-08 03:58:00,